Time,TemperatureF,DewpointF,PressureIn,WindDirection,WindDirectionDegrees,WindSpeedMPH,WindSpeedGustMPH,Humidity,HourlyPrecipIn,Conditions,Clouds,dailyrainin,SoftwareType,DateUTC
2013-07-25 00:01:00,53.6,51.3,30.02,East,90,0.0,0.2,92,0.00,,,0.00,WUHU216HW,2013-07-25 04:01:00,
2013-07-25 00:02:00,53.6,51.3,30.02,North,0,0.0,0.0,92,0.00,,,0.00,WUHU216HW,2013-07-25 04:02:00,
2013-07-25 00:03:00,53.6,51.3,30.01,North,0,0.0,0.0,92,0.00,,,0.00,WUHU216HW,2013-07-25 04:03:00,
2013-07-25 00:04:00,53.6,51.3,30.01,North,0,0.0,0.0,92,0.00,,,0.00,WUHU216HW,2013-07-25 04:04:00,
2013-07-25 00:06:00,53.6,51.3,30.01,North,0,0.0,0.0,92,0.00,,,0.00,WUHU216HW,2013-07-25 04:06:00,
2013-07-25 00:11:00,53.5,51.2,30.01,North,0,0.0,0.0,92,0.00,,,0.00,WUHU216HW,2013-07-25 04:11:00,
2013-07-25 00:16:00,53.3,51.4,30.01,ENE,68,0.0,0.2,93,0.00,,,0.00,WUHU216HW,2013-07-25 04:16:00,
2013-07-25 00:21:00,53.3,51.4,30.01,North,0,0.0,0.0,93,0.00,,,0.00,WUHU216HW,2013-07-25 04:21:00,
2013-07-25 00:26:00,53.1,51.2,30.02,North,0,0.0,0.0,93,0.00,,,0.00,WUHU216HW,2013-07-25 04:26:00,
2013-07-25 00:32:00,52.9,51.0,30.02,North,0,0.0,0.0,93,0.00,,,0.00,WUHU216HW,2013-07-25 04:32:00,
2013-07-25 00:37:00,52.7,50.8,30.01,North,0,0.0,0.0,93,0.00,,,0.00,WUHU216HW,2013-07-25 04:37:00,
2013-07-25 00:42:00,52.4,50.5,30.01,North,0,0.0,0.0,93,0.00,,,0.00,WUHU216HW,2013-07-25 04:42:00,
2013-07-25 00:47:00,52.2,50.6,30.01,North,0,0.0,0.0,94,0.00,,,0.00,WUHU216HW,2013-07-25 04:47:00,
2013-07-25 00:52:00,52.2,50.6,30.01,North,0,0.0,0.0,94,0.00,,,0.00,WUHU216HW,2013-07-25 04:52:00,
2013-07-25 00:57:00,52.0,50.4,30.01,North,0,0.0,0.0,94,0.00,,,0.00,WUHU216HW,2013-07-25 04:57:00,
2013-07-25 01:02:00,52.0,50.4,30.01,North,0,0.0,0.0,94,0.00,,,0.00,WUHU216HW,2013-07-25 05:02:00,
2013-07-25 01:07:00,51.8,50.2,30.01,North,0,0.0,0.0,94,0.00,,,0.00,WUHU216HW,2013-07-25 05:07:00,
2013-07-25 01:12:00,51.7,50.1,30.01,North,0,0.0,0.0,94,0.00,,,0.00,WUHU216HW,2013-07-25 05:12:00,
2013-07-25 01:17:00,51.5,49.9,30.01,North,0,0.0,0.0,94,0.00,,,0.00,WUHU216HW,2013-07-25 05:17:00,
2013-07-25 01:22:00,51.1,49.5,30.00,SSW,203,0.5,0.7,94,0.00,,,0.00,WUHU216HW,2013-07-25 05:22:00,
2013-07-25 01:28:00,50.9,49.3,30.01,SSW,203,0.0,0.2,94,0.00,,,0.00,WUHU216HW,2013-07-25 05:28:00,
2013-07-25 01:33:00,50.8,49.5,30.00,North,0,0.0,0.0,96,0.00,,,0.00,WUHU216HW,2013-07-25 05:33:00,
2013-07-25 01:38:00,50.8,49.5,30.01,SSE,158,0.0,0.2,96,0.00,,,0.00,WUHU216HW,2013-07-25 05:38:00,
2013-07-25 01:43:00,50.8,49.5,30.01,North,0,0.0,0.0,96,0.00,,,0.00,WUHU216HW,2013-07-25 05:43:00,
2013-07-25 01:48:00,50.6,49.3,30.01,North,0,0.0,0.0,96,0.00,,,0.00,WUHU216HW,2013-07-25 05:48:00,
2013-07-25 01:53:00,50.4,49.1,30.01,North,0,0.0,0.0,96,0.00,,,0.00,WUHU216HW,2013-07-25 05:53:00,
2013-07-25 01:58:00,50.2,48.9,30.01,North,0,0.0,0.0,96,0.00,,,0.00,WUHU216HW,2013-07-25 05:58:00,
2013-07-25 02:03:00,50.0,48.7,30.01,North,0,0.0,0.0,96,0.00,,,0.00,WUHU216HW,2013-07-25 06:03:00,
2013-07-25 02:08:00,49.9,49.0,30.01,North,0,0.0,0.0,97,0.00,,,0.00,WUHU216HW,2013-07-25 06:08:00,
2013-07-25 02:13:00,49.9,49.0,30.01,South,180,0.3,0.4,97,0.00,,,0.00,WUHU216HW,2013-07-25 06:13:00,
2013-07-25 02:18:00,49.9,49.0,30.01,South,180,0.2,0.4,97,0.00,,,0.00,WUHU216HW,2013-07-25 06:18:00,
2013-07-25 02:23:00,49.7,48.8,30.01,North,0,0.0,0.0,97,0.00,,,0.00,WUHU216HW,2013-07-25 06:23:00,
2013-07-25 02:28:00,49.7,48.8,30.01,North,0,0.0,0.0,97,0.00,,,0.00,WUHU216HW,2013-07-25 06:28:00,
2013-07-25 02:33:00,49.7,48.8,30.01,North,0,0.0,0.0,97,0.00,,,0.00,WUHU216HW,2013-07-25 06:33:00,
2013-07-25 02:38:00,49.5,48.2,30.02,North,0,0.0,0.0,96,0.00,,,0.00,WUHU216HW,2013-07-25 06:38:00,
2013-07-25 02:43:00,49.3,48.0,30.02,North,0,0.0,0.0,96,0.00,,,0.00,WUHU216HW,2013-07-25 06:43:00,
2013-07-25 02:48:00,49.5,48.2,30.02,North,0,0.0,0.0,96,0.00,,,0.00,WUHU216HW,2013-07-25 06:48:00,
2013-07-25 02:53:00,49.5,48.2,30.02,North,0,0.0,0.0,96,0.00,,,0.00,WUHU216HW,2013-07-25 06:53:00,
2013-07-25 02:58:00,49.3,48.0,30.02,North,0,0.0,0.0,96,0.00,,,0.00,WUHU216HW,2013-07-25 06:58:00,
2013-07-25 03:04:00,49.1,47.8,30.02,North,0,0.0,0.0,96,0.00,,,0.00,WUHU216HW,2013-07-25 07:04:00,
2013-07-25 03:09:00,49.0,47.7,30.02,North,0,0.0,0.0,96,0.00,,,0.00,WUHU216HW,2013-07-25 07:09:00,
2013-07-25 03:14:00,48.8,47.5,30.02,North,0,0.0,0.0,96,0.00,,,0.00,WUHU216HW,2013-07-25 07:14:00,
2013-07-25 03:19:00,48.8,47.5,30.02,North,0,0.0,0.0,96,0.00,,,0.00,WUHU216HW,2013-07-25 07:19:00,
2013-07-25 03:24:00,48.6,47.7,30.02,North,0,0.0,0.0,97,0.00,,,0.00,WUHU216HW,2013-07-25 07:24:00,
2013-07-25 03:29:00,48.6,47.3,30.02,North,0,0.0,0.0,96,0.00,,,0.00,WUHU216HW,2013-07-25 07:29:00,
2013-07-25 03:34:00,48.4,47.5,30.02,North,0,0.0,0.0,97,0.00,,,0.00,WUHU216HW,2013-07-25 07:34:00,
2013-07-25 03:39:00,48.2,47.3,30.02,South,180,0.5,0.7,97,0.00,,,0.00,WUHU216HW,2013-07-25 07:39:00,
2013-07-25 03:44:00,48.2,47.3,30.02,SSE,158,0.5,0.7,97,0.00,,,0.00,WUHU216HW,2013-07-25 07:44:00,
2013-07-25 03:49:00,48.4,47.5,30.02,North,0,0.0,0.0,97,0.00,,,0.00,WUHU216HW,2013-07-25 07:49:00,
2013-07-25 03:54:00,48.4,47.5,30.02,North,0,0.0,0.0,97,0.00,,,0.00,WUHU216HW,2013-07-25 07:54:00,
2013-07-25 03:59:00,48.2,47.3,30.02,North,0,0.0,0.0,97,0.00,,,0.00,WUHU216HW,2013-07-25 07:59:00,
2013-07-25 04:05:00,48.2,47.3,30.02,North,0,0.0,0.0,97,0.00,,,0.00,WUHU216HW,2013-07-25 08:05:00,
2013-07-25 04:10:00,48.1,47.2,30.02,North,0,0.0,0.0,97,0.00,,,0.00,WUHU216HW,2013-07-25 08:10:00,
2013-07-25 04:15:00,48.1,47.2,30.02,North,0,0.0,0.0,97,0.00,,,0.00,WUHU216HW,2013-07-25 08:15:00,
2013-07-25 04:20:00,47.9,47.0,30.02,North,0,0.0,0.0,97,0.00,,,0.00,WUHU216HW,2013-07-25 08:20:00,
2013-07-25 04:25:00,47.7,46.8,30.02,North,0,0.0,0.0,97,0.00,,,0.00,WUHU216HW,2013-07-25 08:25:00,
2013-07-25 04:30:00,47.5,46.6,30.02,North,0,0.0,0.0,97,0.00,,,0.00,WUHU216HW,2013-07-25 08:30:00,
2013-07-25 04:35:00,47.5,46.9,30.02,North,0,0.0,0.0,98,0.00,,,0.00,WUHU216HW,2013-07-25 08:35:00,
2013-07-25 04:40:00,47.3,46.7,30.02,North,0,0.0,0.0,98,0.00,,,0.00,WUHU216HW,2013-07-25 08:40:00,
2013-07-25 04:45:00,47.3,46.7,30.02,North,0,0.0,0.0,98,0.00,,,0.00,WUHU216HW,2013-07-25 08:45:00,
2013-07-25 04:50:00,47.2,46.6,30.02,North,0,0.0,0.0,98,0.00,,,0.00,WUHU216HW,2013-07-25 08:50:00,
2013-07-25 04:55:00,47.2,46.6,30.02,North,0,0.0,0.0,98,0.00,,,0.00,WUHU216HW,2013-07-25 08:55:00,
2013-07-25 05:00:00,47.0,46.4,30.02,North,0,0.0,0.0,98,0.00,,,0.00,WUHU216HW,2013-07-25 09:00:00,
2013-07-25 05:05:00,46.8,46.2,30.02,North,0,0.0,0.0,98,0.00,,,0.00,WUHU216HW,2013-07-25 09:05:00,
2013-07-25 05:10:00,46.8,46.2,30.02,North,0,0.0,0.0,98,0.00,,,0.00,WUHU216HW,2013-07-25 09:10:00,
2013-07-25 05:15:00,46.6,46.0,30.02,North,0,0.0,0.0,98,0.00,,,0.00,WUHU216HW,2013-07-25 09:15:00,
2013-07-25 05:20:00,46.4,45.8,30.03,North,0,0.0,0.0,98,0.00,,,0.00,WUHU216HW,2013-07-25 09:20:00,
2013-07-25 05:25:00,46.4,45.8,30.03,North,0,0.0,0.0,98,0.00,,,0.00,WUHU216HW,2013-07-25 09:25:00,
2013-07-25 05:30:00,46.6,46.0,30.03,North,0,0.0,0.0,98,0.00,,,0.00,WUHU216HW,2013-07-25 09:30:00,
2013-07-25 05:35:00,46.6,46.0,30.03,North,0,0.0,0.0,98,0.00,,,0.00,WUHU216HW,2013-07-25 09:35:00,
2013-07-25 05:40:00,46.4,45.8,30.03,North,0,0.0,0.0,98,0.00,,,0.00,WUHU216HW,2013-07-25 09:40:00,
2013-07-25 05:45:00,46.4,45.8,30.03,North,0,0.0,0.0,98,0.00,,,0.00,WUHU216HW,2013-07-25 09:45:00,
2013-07-25 05:51:00,46.3,45.7,30.03,North,0,0.0,0.0,98,0.00,,,0.00,WUHU216HW,2013-07-25 09:51:00,
2013-07-25 05:56:00,46.1,45.5,30.03,North,0,0.0,0.0,98,0.00,,,0.00,WUHU216HW,2013-07-25 09:56:00,
2013-07-25 06:01:00,45.9,45.3,30.03,North,0,0.0,0.0,98,0.00,,,0.00,WUHU216HW,2013-07-25 10:01:00,
2013-07-25 06:06:00,45.9,45.3,30.04,North,0,0.0,0.0,98,0.00,,,0.00,WUHU216HW,2013-07-25 10:06:00,
2013-07-25 06:11:00,45.9,45.3,30.04,North,0,0.0,0.0,98,0.00,,,0.00,WUHU216HW,2013-07-25 10:11:00,
2013-07-25 06:16:00,45.7,45.1,30.04,North,0,0.0,0.0,98,0.00,,,0.00,WUHU216HW,2013-07-25 10:16:00,
2013-07-25 06:21:00,45.7,45.1,30.04,North,0,0.0,0.0,98,0.00,,,0.00,WUHU216HW,2013-07-25 10:21:00,
2013-07-25 06:26:00,45.7,45.1,30.04,North,0,0.0,0.0,98,0.00,,,0.00,WUHU216HW,2013-07-25 10:26:00,
2013-07-25 06:31:00,45.7,45.1,30.04,North,0,0.0,0.0,98,0.00,,,0.00,WUHU216HW,2013-07-25 10:31:00,
2013-07-25 06:36:00,45.5,45.2,30.04,North,0,0.0,0.0,99,0.00,,,0.00,WUHU216HW,2013-07-25 10:36:00,
2013-07-25 06:41:00,45.4,45.1,30.04,North,0,0.0,0.0,99,0.00,,,0.00,WUHU216HW,2013-07-25 10:41:00,
2013-07-25 06:46:00,45.5,45.2,30.04,North,0,0.0,0.0,99,0.00,,,0.00,WUHU216HW,2013-07-25 10:46:00,
2013-07-25 06:51:00,45.5,45.2,30.04,North,0,0.0,0.0,99,0.00,,,0.00,WUHU216HW,2013-07-25 10:51:00,
2013-07-25 06:57:00,45.5,45.2,30.04,North,0,0.0,0.0,99,0.00,,,0.00,WUHU216HW,2013-07-25 10:57:00,
2013-07-25 07:02:00,45.7,45.4,30.04,North,0,0.0,0.0,99,0.00,,,0.00,WUHU216HW,2013-07-25 11:02:00,
2013-07-25 07:07:00,45.9,45.6,30.04,North,0,0.0,0.0,99,0.00,,,0.00,WUHU216HW,2013-07-25 11:07:00,
2013-07-25 07:12:00,46.1,45.8,30.04,North,0,0.0,0.0,99,0.00,,,0.00,WUHU216HW,2013-07-25 11:12:00,
2013-07-25 07:17:00,46.4,46.1,30.05,North,0,0.0,0.0,99,0.00,,,0.00,WUHU216HW,2013-07-25 11:17:00,
2013-07-25 07:22:00,46.6,46.3,30.05,North,0,0.0,0.0,99,0.00,,,0.00,WUHU216HW,2013-07-25 11:22:00,
2013-07-25 07:27:00,47.2,46.9,30.05,North,0,0.0,0.0,99,0.00,,,0.00,WUHU216HW,2013-07-25 11:27:00,
2013-07-25 07:32:00,47.5,46.9,30.05,North,0,0.0,0.0,98,0.00,,,0.00,WUHU216HW,2013-07-25 11:32:00,
2013-07-25 07:37:00,47.9,47.3,30.05,North,0,0.0,0.0,98,0.00,,,0.00,WUHU216HW,2013-07-25 11:37:00,
2013-07-25 07:42:00,48.6,48.0,30.05,North,0,0.0,0.0,98,0.00,,,0.00,WUHU216HW,2013-07-25 11:42:00,
2013-07-25 07:47:00,49.1,48.5,30.05,North,0,0.0,0.0,98,0.00,,,0.00,WUHU216HW,2013-07-25 11:47:00,
2013-07-25 07:52:00,49.7,49.1,30.05,North,0,0.0,0.0,98,0.00,,,0.00,WUHU216HW,2013-07-25 11:52:00,
2013-07-25 07:58:00,50.2,49.6,30.05,SE,135,0.1,0.2,98,0.00,,,0.00,WUHU216HW,2013-07-25 11:58:00,
2013-07-25 08:03:00,50.9,50.6,30.05,SE,135,0.1,0.4,99,0.00,,,0.00,WUHU216HW,2013-07-25 12:03:00,
2013-07-25 08:08:00,51.5,51.2,30.06,SSW,203,0.5,0.9,99,0.00,,,0.00,WUHU216HW,2013-07-25 12:08:00,
2013-07-25 08:13:00,52.2,51.6,30.06,SW,225,2.1,2.5,98,0.00,,,0.00,WUHU216HW,2013-07-25 12:13:00,
2013-07-25 08:18:00,52.7,52.1,30.06,SSW,203,1.1,1.1,98,0.00,,,0.00,WUHU216HW,2013-07-25 12:18:00,
2013-07-25 08:23:00,53.3,52.7,30.06,SW,217,1.1,1.8,98,0.00,,,0.00,WUHU216HW,2013-07-25 12:23:00,
2013-07-25 08:28:00,53.8,53.2,30.06,SSW,213,0.4,0.7,98,0.00,,,0.00,WUHU216HW,2013-07-25 12:28:00,
2013-07-25 08:33:00,54.2,53.6,30.06,SW,234,0.6,1.6,98,0.00,,,0.00,WUHU216HW,2013-07-25 12:33:00,
2013-07-25 08:39:00,54.7,54.1,30.06,SW,225,1.5,1.8,98,0.00,,,0.00,WUHU216HW,2013-07-25 12:39:00,
2013-07-25 08:44:00,55.1,54.5,30.06,SW,229,1.7,2.0,98,0.00,,,0.00,WUHU216HW,2013-07-25 12:44:00,
2013-07-25 08:49:00,55.4,54.8,30.06,SW,220,0.9,1.1,98,0.00,,,0.00,WUHU216HW,2013-07-25 12:49:00,
2013-07-25 08:54:00,56.0,55.0,30.06,SSW,203,0.1,0.2,97,0.00,,,0.00,WUHU216HW,2013-07-25 12:54:00,
2013-07-25 08:59:00,56.5,55.5,30.06,South,180,1.9,2.2,97,0.00,,,0.00,WUHU216HW,2013-07-25 12:59:00,
2013-07-25 09:04:00,57.2,56.2,30.06,SW,233,1.0,2.5,97,0.00,,,0.00,WUHU216HW,2013-07-25 13:04:00,
2013-07-25 09:10:00,58.3,57.7,30.06,ESE,114,1.4,1.8,98,0.00,,,0.00,WUHU216HW,2013-07-25 13:10:00,
2013-07-25 09:15:00,59.2,58.6,30.06,WSW,244,1.8,3.6,98,0.00,,,0.00,WUHU216HW,2013-07-25 13:15:00,
2013-07-25 09:20:00,59.9,59.2,30.06,SSW,208,1.1,2.5,98,0.00,,,0.00,WUHU216HW,2013-07-25 13:20:00,
2013-07-25 09:25:00,60.8,59.8,30.07,SSW,206,1.7,1.8,97,0.00,,,0.00,WUHU216HW,2013-07-25 13:25:00,
2013-07-25 09:30:00,61.6,60.3,30.07,SW,235,1.2,1.8,96,0.00,,,0.00,WUHU216HW,2013-07-25 13:30:00,
2013-07-25 09:35:00,62.6,60.6,30.07,SSW,208,2.3,2.5,93,0.00,,,0.00,WUHU216HW,2013-07-25 13:35:00,
2013-07-25 09:40:00,63.5,61.2,30.07,South,180,0.2,0.7,92,0.00,,,0.00,WUHU216HW,2013-07-25 13:40:00,
2013-07-25 09:45:00,64.3,61.6,30.07,SW,225,3.5,4.0,91,0.00,,,0.00,WUHU216HW,2013-07-25 13:45:00,
2013-07-25 09:51:00,65.2,62.1,30.07,SW,228,2.4,3.6,90,0.00,,,0.00,WUHU216HW,2013-07-25 13:51:00,
2013-07-25 09:56:00,65.7,61.9,30.07,ENE,65,1.1,1.3,88,0.00,,,0.00,WUHU216HW,2013-07-25 13:56:00,
2013-07-25 10:01:00,66.2,61.7,30.07,SW,222,2.9,4.0,85,0.00,,,0.00,WUHU216HW,2013-07-25 14:01:00,
2013-07-25 10:06:00,67.0,62.1,30.07,SW,235,1.5,1.8,84,0.00,,,0.00,WUHU216HW,2013-07-25 14:06:00,
2013-07-25 10:11:00,67.7,62.5,30.07,East,90,2.0,3.1,83,0.00,,,0.00,WUHU216HW,2013-07-25 14:11:00,
2013-07-25 10:16:00,68.2,61.8,30.07,ESE,113,2.9,3.1,80,0.00,,,0.00,WUHU216HW,2013-07-25 14:16:00,
2013-07-25 10:21:00,68.6,61.0,30.07,WSW,248,0.8,1.1,76,0.00,,,0.00,WUHU216HW,2013-07-25 14:21:00,
2013-07-25 10:26:00,68.8,61.6,30.07,East,92,3.3,3.8,78,0.00,,,0.00,WUHU216HW,2013-07-25 14:26:00,
2013-07-25 10:31:00,69.7,62.1,30.07,NNW,333,2.0,2.7,76,0.00,,,0.00,WUHU216HW,2013-07-25 14:31:00,
2013-07-25 10:36:00,69.7,60.8,30.07,ESE,121,1.2,1.8,73,0.00,,,0.00,WUHU216HW,2013-07-25 14:36:00,
2013-07-25 10:41:00,70.4,61.5,30.07,SE,124,0.9,1.8,73,0.00,,,0.00,WUHU216HW,2013-07-25 14:41:00,
2013-07-25 10:46:00,70.4,60.2,30.07,WSW,257,1.9,3.4,70,0.00,,,0.00,WUHU216HW,2013-07-25 14:46:00,
2013-07-25 10:51:00,70.7,60.9,30.07,West,260,2.3,3.4,71,0.00,,,0.00,WUHU216HW,2013-07-25 14:51:00,
2013-07-25 10:56:00,71.3,61.5,30.07,NNE,18,0.6,1.1,71,0.00,,,0.00,WUHU216HW,2013-07-25 14:56:00,
2013-07-25 11:01:00,72.4,62.6,30.07,SW,228,0.6,1.3,71,0.00,,,0.00,WUHU216HW,2013-07-25 15:01:00,
2013-07-25 11:07:00,73.1,61.9,30.07,East,85,4.9,5.4,67,0.00,,,0.00,WUHU216HW,2013-07-25 15:07:00,
2013-07-25 11:12:00,72.4,60.3,30.07,NE,50,2.2,3.4,65,0.00,,,0.00,WUHU216HW,2013-07-25 15:12:00,
2013-07-25 11:17:00,72.4,59.8,30.07,ENE,64,2.0,3.1,64,0.00,,,0.00,WUHU216HW,2013-07-25 15:17:00,
2013-07-25 11:22:00,72.0,59.4,30.07,ESE,119,0.6,1.1,64,0.00,,,0.00,WUHU216HW,2013-07-25 15:22:00,
2013-07-25 11:27:00,72.9,60.7,30.07,SSE,158,0.8,1.1,65,0.00,,,0.00,WUHU216HW,2013-07-25 15:27:00,
2013-07-25 11:32:00,73.6,60.9,30.07,ESE,107,1.6,2.2,64,0.00,,,0.00,WUHU216HW,2013-07-25 15:32:00,
2013-07-25 11:37:00,74.3,61.6,30.07,ENE,76,3.4,4.7,64,0.00,,,0.00,WUHU216HW,2013-07-25 15:37:00,
2013-07-25 11:42:00,73.8,59.6,30.07,East,95,2.5,3.4,61,0.00,,,0.00,WUHU216HW,2013-07-25 15:42:00,
2013-07-25 11:47:00,74.2,61.0,30.07,East,99,1.5,1.8,63,0.00,,,0.00,WUHU216HW,2013-07-25 15:47:00,
2013-07-25 11:53:00,75.2,61.4,30.07,SSW,207,2.2,2.9,62,0.00,,,0.00,WUHU216HW,2013-07-25 15:53:00,
2013-07-25 11:58:00,76.0,61.7,30.07,WSW,253,2.4,3.4,61,0.00,,,0.00,WUHU216HW,2013-07-25 15:58:00,
2013-07-25 12:03:00,76.7,62.3,30.07,West,270,0.9,1.3,61,0.00,,,0.00,WUHU216HW,2013-07-25 16:03:00,
2013-07-25 12:08:00,76.3,59.7,30.07,NNE,16,1.6,1.8,56,0.00,,,0.00,WUHU216HW,2013-07-25 16:08:00,
2013-07-25 12:13:00,75.4,58.3,30.07,NNE,29,3.4,4.3,55,0.00,,,0.00,WUHU216HW,2013-07-25 16:13:00,
2013-07-25 12:18:00,75.6,58.5,30.07,NNW,341,1.6,2.7,55,0.00,,,0.00,WUHU216HW,2013-07-25 16:18:00,
2013-07-25 12:23:00,76.0,60.0,30.07,SSE,168,0.5,0.9,57,0.00,,,0.00,WUHU216HW,2013-07-25 16:23:00,
2013-07-25 12:28:00,77.0,60.4,30.07,WSW,248,3.6,4.5,56,0.00,,,0.00,WUHU216HW,2013-07-25 16:28:00,
2013-07-25 12:33:00,77.8,61.1,30.07,WNW,283,1.6,2.5,56,0.00,,,0.00,WUHU216HW,2013-07-25 16:33:00,
2013-07-25 12:38:00,77.4,58.4,30.07,WNW,301,0.9,1.6,52,0.00,,,0.00,WUHU216HW,2013-07-25 16:38:00,
2013-07-25 12:43:00,76.7,58.3,30.07,NE,56,3.2,4.5,53,0.00,,,0.00,WUHU216HW,2013-07-25 16:43:00,
2013-07-25 12:48:00,76.7,58.9,30.07,East,96,3.9,5.1,54,0.00,,,0.00,WUHU216HW,2013-07-25 16:48:00,
2013-07-25 12:53:00,76.3,58.0,30.07,ESE,105,3.5,5.4,53,0.00,,,0.00,WUHU216HW,2013-07-25 16:53:00,
2013-07-25 12:58:00,77.0,59.8,30.07,ESE,114,2.8,3.6,55,0.00,,,0.00,WUHU216HW,2013-07-25 16:58:00,
2013-07-25 13:03:00,77.8,59.4,30.07,NNE,23,2.3,2.9,53,0.00,,,0.00,WUHU216HW,2013-07-25 17:03:00,
2013-07-25 13:09:00,76.5,55.6,30.07,East,83,3.9,5.8,48,0.00,,,0.00,WUHU216HW,2013-07-25 17:09:00,
2013-07-25 13:14:00,75.4,55.2,30.07,North,354,2.0,2.5,50,0.00,,,0.00,WUHU216HW,2013-07-25 17:14:00,
2013-07-25 13:19:00,75.1,56.2,30.07,East,85,4.8,5.6,52,0.00,,,0.00,WUHU216HW,2013-07-25 17:19:00,
2013-07-25 13:24:00,75.2,56.9,30.07,East,88,3.0,3.8,53,0.00,,,0.00,WUHU216HW,2013-07-25 17:24:00,
2013-07-25 13:29:00,76.7,59.5,30.07,WSW,247,1.4,1.8,55,0.00,,,0.00,WUHU216HW,2013-07-25 17:29:00,
2013-07-25 13:34:00,78.1,60.2,30.07,NW,308,1.7,3.4,54,0.00,,,0.00,WUHU216HW,2013-07-25 17:34:00,
2013-07-25 13:39:00,79.0,60.5,30.07,SSW,201,4.0,4.3,53,0.00,,,0.00,WUHU216HW,2013-07-25 17:39:00,
2013-07-25 13:44:00,79.7,60.5,30.06,SW,225,4.1,4.7,52,0.00,,,0.00,WUHU216HW,2013-07-25 17:44:00,
2013-07-25 13:49:00,80.3,61.1,30.06,NW,308,2.3,2.5,52,0.00,,,0.00,WUHU216HW,2013-07-25 17:49:00,
2013-07-25 13:54:00,80.3,59.1,30.06,NE,35,1.4,2.0,48,0.00,,,0.00,WUHU216HW,2013-07-25 17:54:00,
2013-07-25 13:59:00,79.6,58.5,30.06,North,356,1.6,2.5,48,0.00,,,0.00,WUHU216HW,2013-07-25 17:59:00,
2013-07-25 14:04:00,78.7,58.3,30.06,ESE,106,2.6,3.6,50,0.00,,,0.00,WUHU216HW,2013-07-25 18:04:00,
2013-07-25 14:09:00,78.1,57.7,30.06,East,79,3.6,4.3,50,0.00,,,0.00,WUHU216HW,2013-07-25 18:09:00,
2013-07-25 14:14:00,77.8,58.1,30.06,NNW,329,0.6,0.9,51,0.00,,,0.00,WUHU216HW,2013-07-25 18:14:00,
2013-07-25 14:19:00,77.9,57.5,30.06,North,8,2.1,2.7,50,0.00,,,0.00,WUHU216HW,2013-07-25 18:19:00,
2013-07-25 14:24:00,77.9,58.2,30.06,North,9,1.7,2.7,51,0.00,,,0.00,WUHU216HW,2013-07-25 18:24:00,
2013-07-25 14:29:00,78.5,59.4,30.06,NW,310,1.5,1.8,52,0.00,,,0.00,WUHU216HW,2013-07-25 18:29:00,
2013-07-25 14:35:00,79.0,58.6,30.07,North,353,1.3,1.8,50,0.00,,,0.00,WUHU216HW,2013-07-25 18:35:00,
2013-07-25 14:40:00,78.8,57.7,30.07,North,0,1.1,2.5,48,0.00,,,0.00,WUHU216HW,2013-07-25 18:40:00,
2013-07-25 14:45:00,78.8,58.4,30.07,North,355,1.1,1.3,50,0.00,,,0.00,WUHU216HW,2013-07-25 18:45:00,
2013-07-25 14:50:00,79.0,58.6,30.07,WSW,255,1.1,1.6,50,0.00,,,0.00,WUHU216HW,2013-07-25 18:50:00,
2013-07-25 14:55:00,79.4,58.3,30.06,East,81,1.6,1.8,48,0.00,,,0.00,WUHU216HW,2013-07-25 18:55:00,
2013-07-25 15:00:00,79.6,58.5,30.06,ENE,72,4.3,6.3,48,0.00,,,0.00,WUHU216HW,2013-07-25 19:00:00,
2013-07-25 15:05:00,78.8,58.4,30.06,East,94,3.3,5.1,50,0.00,,,0.00,WUHU216HW,2013-07-25 19:05:00,
2013-07-25 15:10:00,78.8,58.4,30.06,SE,125,2.0,2.5,50,0.00,,,0.00,WUHU216HW,2013-07-25 19:10:00,
2013-07-25 15:15:00,79.9,58.7,30.06,NNW,329,1.9,2.7,48,0.00,,,0.00,WUHU216HW,2013-07-25 19:15:00,
2013-07-25 15:20:00,80.5,59.3,30.05,WSW,237,3.3,4.7,48,0.00,,,0.00,WUHU216HW,2013-07-25 19:20:00,
2013-07-25 15:25:00,81.4,60.1,30.05,West,269,1.9,2.2,48,0.00,,,0.00,WUHU216HW,2013-07-25 19:25:00,
2013-07-25 15:30:00,82.4,60.3,30.05,ESE,103,1.4,2.7,47,0.00,,,0.00,WUHU216HW,2013-07-25 19:30:00,
2013-07-25 15:35:00,81.7,57.6,30.05,East,90,2.3,3.4,44,0.00,,,0.00,WUHU216HW,2013-07-25 19:35:00,
2013-07-25 15:40:00,80.6,58.0,30.05,NNW,329,0.7,1.1,46,0.00,,,0.00,WUHU216HW,2013-07-25 19:40:00,
2013-07-25 15:45:00,80.6,58.0,30.05,East,90,2.9,3.4,46,0.00,,,0.00,WUHU216HW,2013-07-25 19:45:00,
2013-07-25 15:50:00,79.9,57.4,30.05,ESE,117,4.1,5.1,46,0.00,,,0.00,WUHU216HW,2013-07-25 19:50:00,
2013-07-25 15:56:00,79.6,57.8,30.05,NE,53,1.0,1.1,47,0.00,,,0.00,WUHU216HW,2013-07-25 19:56:00,
2013-07-25 16:01:00,79.6,57.8,30.04,SE,138,1.9,4.5,47,0.00,,,0.00,WUHU216HW,2013-07-25 20:01:00,
2013-07-25 16:06:00,79.6,59.1,30.04,ESE,104,1.5,3.4,50,0.00,,,0.00,WUHU216HW,2013-07-25 20:06:00,
2013-07-25 16:11:00,80.6,60.0,30.04,ESE,105,3.2,3.4,50,0.00,,,0.00,WUHU216HW,2013-07-25 20:11:00,
2013-07-25 16:16:00,81.5,59.5,30.04,SE,145,0.6,0.9,47,0.00,,,0.00,WUHU216HW,2013-07-25 20:16:00,
2013-07-25 16:21:00,81.5,59.5,30.03,North,349,1.2,1.8,47,0.00,,,0.00,WUHU216HW,2013-07-25 20:21:00,
2013-07-25 16:26:00,82.3,61.6,30.03,SE,131,2.4,2.9,50,0.00,,,0.00,WUHU216HW,2013-07-25 20:26:00,
2013-07-25 16:31:00,83.2,60.4,30.04,East,82,4.8,5.4,46,0.00,,,0.00,WUHU216HW,2013-07-25 20:31:00,
2013-07-25 16:36:00,82.1,57.9,30.04,ENE,69,4.6,5.4,44,0.00,,,0.00,WUHU216HW,2013-07-25 20:36:00,
2013-07-25 16:41:00,81.7,59.7,30.04,ESE,121,2.4,3.8,47,0.00,,,0.00,WUHU216HW,2013-07-25 20:41:00,
2013-07-25 16:46:00,82.6,59.8,30.04,WSW,241,3.0,4.3,46,0.00,,,0.00,WUHU216HW,2013-07-25 20:46:00,
2013-07-25 16:51:00,82.8,59.3,30.04,West,261,2.2,3.1,45,0.00,,,0.00,WUHU216HW,2013-07-25 20:51:00,
2013-07-25 16:56:00,83.3,59.8,30.04,WSW,246,2.5,3.1,45,0.00,,,0.00,WUHU216HW,2013-07-25 20:56:00,
2013-07-25 17:01:00,83.3,58.3,30.04,NE,56,0.7,0.7,43,0.00,,,0.00,WUHU216HW,2013-07-25 21:01:00,
2013-07-25 17:06:00,83.2,58.9,30.04,SSW,208,1.5,2.7,44,0.00,,,0.00,WUHU216HW,2013-07-25 21:06:00,
2013-07-25 17:11:00,83.9,59.6,30.04,SE,132,1.0,1.1,44,0.00,,,0.00,WUHU216HW,2013-07-25 21:11:00,
2013-07-25 17:16:00,84.4,60.0,30.04,SW,225,2.6,4.0,44,0.00,,,0.00,WUHU216HW,2013-07-25 21:16:00,
2013-07-25 17:21:00,84.2,59.1,30.04,West,265,2.3,3.8,43,0.00,,,0.00,WUHU216HW,2013-07-25 21:21:00,
2013-07-25 17:27:00,83.5,59.2,30.04,SSE,166,2.8,3.1,44,0.00,,,0.00,WUHU216HW,2013-07-25 21:27:00,
2013-07-25 17:32:00,83.0,58.0,30.03,East,83,0.9,2.2,43,0.00,,,0.00,WUHU216HW,2013-07-25 21:32:00,
2013-07-25 17:37:00,82.3,57.4,30.03,West,274,0.9,2.0,43,0.00,,,0.00,WUHU216HW,2013-07-25 21:37:00,
2013-07-25 17:42:00,82.8,58.6,30.04,WSW,239,2.9,3.4,44,0.00,,,0.00,WUHU216HW,2013-07-25 21:42:00,
2013-07-25 17:47:00,83.2,58.9,30.04,West,266,1.8,2.5,44,0.00,,,0.00,WUHU216HW,2013-07-25 21:47:00,
2013-07-25 17:52:00,83.2,58.9,30.04,SW,227,2.8,3.1,44,0.00,,,0.00,WUHU216HW,2013-07-25 21:52:00,
2013-07-25 17:57:00,83.3,58.3,30.03,WNW,296,2.3,3.4,43,0.00,,,0.00,WUHU216HW,2013-07-25 21:57:00,
2013-07-25 18:02:00,82.8,57.1,30.03,SW,235,1.7,2.0,42,0.00,,,0.00,WUHU216HW,2013-07-25 22:02:00,
2013-07-25 18:07:00,83.0,58.0,30.03,WNW,293,2.7,3.8,43,0.00,,,0.00,WUHU216HW,2013-07-25 22:07:00,
2013-07-25 18:12:00,83.2,57.4,30.03,WNW,283,1.8,2.5,42,0.00,,,0.00,WUHU216HW,2013-07-25 22:12:00,
2013-07-25 18:17:00,83.2,57.4,30.03,NW,304,1.7,2.0,42,0.00,,,0.00,WUHU216HW,2013-07-25 22:17:00,
2013-07-25 18:23:00,82.1,56.4,30.03,WNW,287,1.2,1.8,42,0.00,,,0.00,WUHU216HW,2013-07-25 22:23:00,
2013-07-25 18:28:00,81.5,55.9,30.03,NW,305,1.1,2.2,42,0.00,,,0.00,WUHU216HW,2013-07-25 22:28:00,
2013-07-25 18:33:00,81.2,56.4,30.02,SW,229,0.8,1.8,43,0.00,,,0.00,WUHU216HW,2013-07-25 22:33:00,
2013-07-25 18:38:00,81.5,57.4,30.02,South,181,0.3,0.4,44,0.00,,,0.00,WUHU216HW,2013-07-25 22:38:00,
2013-07-25 18:43:00,82.1,57.9,30.02,ESE,113,1.4,1.8,44,0.00,,,0.00,WUHU216HW,2013-07-25 22:43:00,
2013-07-25 18:48:00,82.4,58.2,30.02,East,97,2.2,2.5,44,0.00,,,0.00,WUHU216HW,2013-07-25 22:48:00,
2013-07-25 18:53:00,81.7,56.8,30.02,ESE,115,2.5,2.9,43,0.00,,,0.00,WUHU216HW,2013-07-25 22:53:00,
2013-07-25 18:58:00,81.0,56.2,30.02,ESE,113,0.2,0.4,43,0.00,,,0.00,WUHU216HW,2013-07-25 22:58:00,
2013-07-25 19:03:00,80.3,55.6,30.02,ESE,119,0.9,1.3,43,0.00,,,0.00,WUHU216HW,2013-07-25 23:03:00,
2013-07-25 19:08:00,79.6,54.9,30.02,East,90,2.5,2.5,43,0.00,,,0.00,WUHU216HW,2013-07-25 23:08:00,
2013-07-25 19:13:00,77.9,54.1,30.02,East,100,1.7,2.5,44,0.00,,,0.00,WUHU216HW,2013-07-25 23:13:00,
2013-07-25 19:18:00,76.9,53.9,30.02,SE,135,0.1,0.4,45,0.00,,,0.00,WUHU216HW,2013-07-25 23:18:00,
2013-07-25 19:23:00,76.5,54.9,30.03,North,0,0.0,0.0,47,0.00,,,0.00,WUHU216HW,2013-07-25 23:23:00,
2013-07-25 19:28:00,75.8,55.0,30.02,North,0,0.0,0.0,48,0.00,,,0.00,WUHU216HW,2013-07-25 23:28:00,
2013-07-25 19:33:00,75.2,55.1,30.03,North,0,0.0,0.0,50,0.00,,,0.00,WUHU216HW,2013-07-25 23:33:00,
2013-07-25 19:39:00,74.3,55.5,30.02,North,0,0.0,0.0,52,0.00,,,0.00,WUHU216HW,2013-07-25 23:39:00,
2013-07-25 19:44:00,73.6,56.0,30.02,North,0,0.0,0.0,54,0.00,,,0.00,WUHU216HW,2013-07-25 23:44:00,
2013-07-25 19:49:00,73.1,55.6,30.03,North,0,0.0,0.0,54,0.00,,,0.00,WUHU216HW,2013-07-25 23:49:00,
2013-07-25 19:54:00,72.4,55.5,30.03,North,0,0.0,0.0,55,0.00,,,0.00,WUHU216HW,2013-07-25 23:54:00,
2013-07-25 19:59:00,72.0,55.7,30.03,North,0,0.0,0.0,56,0.00,,,0.00,WUHU216HW,2013-07-25 23:59:00,
2013-07-25 20:04:00,71.5,55.8,30.03,SW,225,0.7,1.1,57,0.00,,,0.00,WUHU216HW,2013-07-26 00:04:00,
2013-07-25 20:09:00,70.9,55.8,30.03,North,0,0.0,0.0,58,0.00,,,0.00,WUHU216HW,2013-07-26 00:09:00,
2013-07-25 20:14:00,70.2,55.6,30.03,North,0,0.0,0.0,60,0.00,,,0.00,WUHU216HW,2013-07-26 00:14:00,
2013-07-25 20:19:00,69.8,55.3,30.03,North,0,0.0,0.0,60,0.00,,,0.00,WUHU216HW,2013-07-26 00:19:00,
2013-07-25 20:24:00,69.1,55.1,30.03,North,0,0.0,0.0,61,0.00,,,0.00,WUHU216HW,2013-07-26 00:24:00,
2013-07-25 20:30:00,68.8,55.3,30.03,North,0,0.0,0.0,62,0.00,,,0.00,WUHU216HW,2013-07-26 00:30:00,
2013-07-25 20:35:00,68.2,54.8,30.03,North,0,0.0,0.0,62,0.00,,,0.00,WUHU216HW,2013-07-26 00:35:00,
2013-07-25 20:40:00,67.7,54.8,30.02,North,0,0.0,0.0,63,0.00,,,0.00,WUHU216HW,2013-07-26 00:40:00,
2013-07-25 20:45:00,67.1,54.2,30.02,North,0,0.0,0.0,63,0.00,,,0.00,WUHU216HW,2013-07-26 00:45:00,
2013-07-25 20:50:00,66.6,54.7,30.02,North,0,0.0,0.0,65,0.00,,,0.00,WUHU216HW,2013-07-26 00:50:00,
2013-07-25 20:55:00,66.1,54.2,30.02,North,0,0.0,0.0,65,0.00,,,0.00,WUHU216HW,2013-07-26 00:55:00,
2013-07-25 21:00:00,65.7,54.3,30.02,North,0,0.0,0.0,66,0.00,,,0.00,WUHU216HW,2013-07-26 01:00:00,
2013-07-25 21:05:00,65.2,54.3,30.02,North,0,0.0,0.0,67,0.00,,,0.00,WUHU216HW,2013-07-26 01:05:00,
2013-07-25 21:10:00,64.4,54.0,30.02,North,0,0.0,0.0,69,0.00,,,0.00,WUHU216HW,2013-07-26 01:10:00,
2013-07-25 21:15:00,64.1,54.1,30.02,North,0,0.0,0.0,70,0.00,,,0.00,WUHU216HW,2013-07-26 01:15:00,
2013-07-25 21:21:00,63.5,54.4,30.02,North,0,0.0,0.0,72,0.00,,,0.00,WUHU216HW,2013-07-26 01:21:00,
2013-07-25 21:26:00,63.0,53.9,30.02,North,0,0.0,0.0,72,0.00,,,0.00,WUHU216HW,2013-07-26 01:26:00,
2013-07-25 21:32:00,62.5,53.9,30.02,North,0,0.0,0.0,73,0.00,,,0.00,WUHU216HW,2013-07-26 01:32:00,
2013-07-25 21:37:00,61.9,54.1,30.02,North,0,0.0,0.0,75,0.00,,,0.00,WUHU216HW,2013-07-26 01:37:00,
2013-07-25 21:42:00,61.6,53.8,30.02,North,0,0.0,0.0,75,0.00,,,0.00,WUHU216HW,2013-07-26 01:42:00,
2013-07-25 21:47:00,61.2,53.8,30.02,North,0,0.0,0.0,76,0.00,,,0.00,WUHU216HW,2013-07-26 01:47:00,
2013-07-25 21:52:00,60.7,53.3,30.02,North,0,0.0,0.0,76,0.00,,,0.00,WUHU216HW,2013-07-26 01:52:00,
2013-07-25 21:57:00,60.3,52.9,30.02,North,0,0.0,0.0,76,0.00,,,0.00,WUHU216HW,2013-07-26 01:57:00,
2013-07-25 22:02:00,59.9,52.9,30.02,North,0,0.0,0.0,78,0.00,,,0.00,WUHU216HW,2013-07-26 02:02:00,
2013-07-25 22:07:00,59.6,52.7,30.02,North,0,0.0,0.0,78,0.00,,,0.00,WUHU216HW,2013-07-26 02:07:00,
2013-07-25 22:12:00,59.2,52.6,30.03,North,0,0.0,0.0,79,0.00,,,0.00,WUHU216HW,2013-07-26 02:12:00,
2013-07-25 22:17:00,58.9,52.4,30.02,North,0,0.0,0.0,79,0.00,,,0.00,WUHU216HW,2013-07-26 02:17:00,
2013-07-25 22:22:00,58.7,52.2,30.03,North,0,0.0,0.0,79,0.00,,,0.00,WUHU216HW,2013-07-26 02:22:00,
2013-07-25 22:27:00,58.1,51.9,30.03,North,0,0.0,0.0,80,0.00,,,0.00,WUHU216HW,2013-07-26 02:27:00,
2013-07-25 22:32:00,58.0,51.9,30.03,North,0,0.0,0.0,80,0.00,,,0.00,WUHU216HW,2013-07-26 02:32:00,
2013-07-25 22:38:00,57.6,52.2,30.03,North,0,0.0,0.0,82,0.00,,,0.00,WUHU216HW,2013-07-26 02:38:00,
2013-07-25 22:43:00,57.4,52.0,30.03,North,0,0.0,0.0,82,0.00,,,0.00,WUHU216HW,2013-07-26 02:43:00,
2013-07-25 22:48:00,57.2,51.8,30.03,North,0,0.0,0.0,82,0.00,,,0.00,WUHU216HW,2013-07-26 02:48:00,
2013-07-25 22:53:00,57.1,52.1,30.03,North,0,0.0,0.0,83,0.00,,,0.00,WUHU216HW,2013-07-26 02:53:00,
2013-07-25 22:58:00,56.9,52.2,30.03,North,0,0.0,0.0,84,0.00,,,0.00,WUHU216HW,2013-07-26 02:58:00,
2013-07-25 23:03:00,56.7,52.4,30.04,North,0,0.0,0.0,85,0.00,,,0.00,WUHU216HW,2013-07-26 03:03:00,
2013-07-25 23:08:00,56.5,52.2,30.05,North,0,0.0,0.0,85,0.00,,,0.00,WUHU216HW,2013-07-26 03:08:00,
2013-07-25 23:14:00,56.5,52.5,30.04,North,0,0.0,0.0,87,0.00,,,0.00,WUHU216HW,2013-07-26 03:14:00,
2013-07-25 23:19:00,56.3,52.3,30.04,North,0,0.0,0.0,87,0.00,,,0.00,WUHU216HW,2013-07-26 03:19:00,
2013-07-25 23:24:00,56.2,52.6,30.04,North,0,0.0,0.0,88,0.00,,,0.00,WUHU216HW,2013-07-26 03:24:00,
2013-07-25 23:29:00,56.2,52.6,30.04,North,0,0.0,0.0,88,0.00,,,0.00,WUHU216HW,2013-07-26 03:29:00,
2013-07-25 23:34:00,56.2,52.9,30.05,North,0,0.0,0.0,89,0.00,,,0.00,WUHU216HW,2013-07-26 03:34:00,
2013-07-25 23:39:00,56.0,52.7,30.05,North,0,0.0,0.0,89,0.00,,,0.00,WUHU216HW,2013-07-26 03:39:00,
2013-07-25 23:44:00,56.0,52.7,30.05,North,0,0.0,0.0,89,0.00,,,0.00,WUHU216HW,2013-07-26 03:44:00,
2013-07-25 23:49:00,55.8,52.5,30.06,North,0,0.0,0.0,89,0.00,,,0.00,WUHU216HW,2013-07-26 03:49:00,
2013-07-25 23:54:00,55.8,52.9,30.06,North,0,0.0,0.0,90,0.00,,,0.00,WUHU216HW,2013-07-26 03:54:00,
2013-07-25 23:59:00,55.8,52.9,30.06,North,0,0.0,0.0,90,0.00,,,0.00,WUHU216HW,2013-07-26 03:59:00,